FW7711 Weather Reports


time (UTC)temp
C
wind
direction
speed
KPH
gust
KPH
rain 1hr
cm
rain 24hr
cm
rain mn
cm
humidity
%
barometer
mb
20260507161610 12 0.0 0.0 0.00 0.00 0.00 38 1012.9
20260507160117 11 0.0 0.0 0.00 0.00 0.00 40 1013.2
20260507154556 11 0.0 0.0 0.00 0.00 0.00 45 1013.3
20260507153057 11 0.0 0.0 0.00 0.00 0.00 42 1013.3
20260507151557 10 0.0 0.0 0.00 0.00 0.00 45 1013.4
20260507150059 11 0.0 0.0 0.00 0.00 0.00 45 1013.4
20260507144604 10 0.0 0.0 0.00 0.00 0.00 48 1013.4
20260507143106 10 0.0 0.0 0.00 0.00 0.00 45 1013.6
20260507141616 9 0.0 0.0 0.00 0.00 0.00 47 1013.6
20260507140110 8 0.0 0.0 0.00 0.00 0.00 55 1013.6
20260507134609 7 0.0 0.0 0.00 0.00 0.00 63 1013.7
20260507133109 6 0.0 0.0 0.00 0.00 0.00 69 1013.7
20260507131600 4 0.0 0.0 0.00 0.00 0.00 77 1013.7
20260507130058 3 0.0 0.0 0.00 0.00 0.00 90 1013.8
20260507124558 1 0.0 0.0 0.00 0.00 0.00 95 1013.8
20260507123100 0 0.0 0.0 0.00 0.00 0.00 93 1014.0
20260507121558 -1 0.0 0.0 0.00 0.00 0.00 93 1013.9
20260507120100 -1 0.0 0.0 0.00 0.00 0.00 92 1013.9
20260507114603 -1 0.0 0.0 0.00 0.00 0.00 91 1014.0
20260507113102 -2 0.0 0.0 0.00 0.00 0.00 90 1013.9
20260507111603 -1 0.0 0.0 0.00 0.00 0.00 90 1013.8
20260507110104 -1 0.0 0.0 0.00 0.00 0.00 89 1013.8
20260507104602 -1 0.0 0.0 0.00 0.00 0.00 89 1013.8
20260507103059 -1 0.0 0.0 0.00 0.00 0.00 89 1013.9
20260507101634 -1 0.0 0.0 0.00 0.00 0.00 88 1013.8
20260507100058 -1 0.0 0.0 0.00 0.00 0.00 88 1013.9
20260507094600 -1 0.0 0.0 0.00 0.00 0.00 88 1014.0
20260507093100 -1 0.0 0.0 0.00 0.00 0.00 87 1014.1
20260507091600 -1 0.0 0.0 0.00 0.00 0.00 87 1014.1
20260507090113 -1 0.0 0.0 0.00 0.00 0.00 87 1014.1
20260507084601 -1 0.0 0.0 0.00 0.00 0.00 86 1014.1
20260507083100 0 0.0 0.0 0.00 0.00 0.00 86 1014.0
20260507081559 0 0.0 0.0 0.00 0.00 0.00 85 1014.1
20260507074601 0 0.0 0.0 0.00 0.00 0.00 83 1014.1
20260507073100 0 0.0 0.0 0.00 0.00 0.00 81 1014.3
20260507071606 0 0.0 0.0 0.00 0.00 0.00 80 1014.4
20260507064618 1 0.0 0.0 0.00 0.00 0.00 77 1014.7
20260507063059 2 0.0 0.0 0.00 0.00 0.00 76 1014.8
20260507061600 2 0.0 0.0 0.00 0.00 0.00 73 1014.9
20260507060101 3 0.0 0.0 0.00 0.00 0.00 71 1014.9
20260507054608 3 0.0 0.0 0.00 0.00 0.00 71 1015.0
20260507053059 3 0.0 0.0 0.00 0.00 0.00 71 1015.0
20260507051600 3 0.0 0.0 0.00 0.00 0.00 72 1015.2
20260507044559 3 0.0 0.0 0.00 0.00 0.00 70 1015.3
20260507043104 3 0.0 0.0 0.00 0.00 0.00 69 1015.3
20260507041612 3 0.0 0.0 0.00 0.00 0.00 69 1015.5
20260507040101 3 0.0 0.0 0.00 0.00 0.00 69 1015.6
20260507034612 3 0.0 0.0 0.00 0.00 0.00 69 1015.6
20260507033059 3 0.0 0.0 0.00 0.00 0.00 69 1015.6
20260507031605 3 0.0 0.0 0.00 0.00 0.00 69 1015.6
20260507030105 3 0.0 0.0 0.00 0.00 0.00 69 1015.7
20260507024607 3 0.0 0.0 0.00 0.00 0.00 66 1015.8
20260507023113 3 0.0 0.0 0.00 0.00 0.00 63 1015.8
20260507021559 4 0.0 0.0 0.00 0.00 0.00 60 1015.9
20260507020100 5 0.0 0.0 0.00 0.00 0.00 59 1015.8
20260507014607 5 0.0 0.0 0.00 0.00 0.00 57 1015.8
20260507013115 6 0.0 0.0 0.00 0.00 0.00 53 1015.7
20260507011600 6 0.0 0.0 0.00 0.00 0.00 52 1015.7
20260507010059 6 0.0 0.0 0.00 0.00 0.00 50 1015.7
20260507004559 7 0.0 0.0 0.00 0.00 0.00 50 1015.9
20260507003058 7 0.0 0.0 0.00 0.00 0.00 49 1015.9
20260507001620 7 0.0 0.0 0.00 0.00 0.00 49 1016.0
20260507000101 7 0.0 0.0 0.00 0.00 0.00 49 1016.0
20260506234558 7 0.0 0.0 0.00 0.00 0.00 49 1016.1
20260506233107 8 0.0 0.0 0.00 0.00 0.00 48 1016.2
20260506231557 8 0.0 0.0 0.00 0.00 0.00 49 1016.2
20260506224610 8 0.0 0.0 0.00 0.00 0.00 49 1016.3
20260506223126 8 0.0 0.0 0.00 0.00 0.00 49 1016.3
20260506221604 7 0.0 0.0 0.00 0.00 0.00 50 1016.4
20260506220101 7 0.0 0.0 0.00 0.00 0.00 51 1016.4
20260506214610 7 0.0 0.0 0.00 0.00 0.00 51 1016.4
20260506213058 7 0.0 0.0 0.00 0.00 0.00 50 1016.5
20260506211600 7 0.0 0.0 0.00 0.00 0.00 52 1016.4
20260506210121 7 0.0 0.0 0.00 0.00 0.00 54 1016.7
20260506204600 7 0.0 0.0 0.00 0.00 0.00 53 1016.8
20260506203103 7 0.0 0.0 0.00 0.00 0.00 53 1016.9
20260506201600 7 0.0 0.0 0.00 0.00 0.00 55 1016.8
20260506200143 7 0.0 0.0 0.00 0.00 0.00 54 1016.9
20260506194614 6 0.0 0.0 0.00 0.00 0.00 55 1017.0
20260506193058 6 0.0 0.0 0.00 0.00 0.00 54 1017.0
20260506191601 6 0.0 0.0 0.00 0.00 0.00 54 1017.0
20260506190058 6 0.0 0.0 0.00 0.00 0.00 55 1017.0
20260506184600 6 0.0 0.0 0.00 0.00 0.00 54 1017.1
20260506183059 6 0.0 0.0 0.00 0.00 0.00 53 1017.1
20260506181557 6 0.0 0.0 0.00 0.00 0.00 54 1017.2
20260506180106 6 0.0 0.0 0.00 0.00 0.00 53 1017.1
20260506174558 6 0.0 0.0 0.00 0.00 0.00 53 1017.2
20260506173116 6 0.0 0.0 0.00 0.00 0.00 53 1017.4
20260506171601 6 0.0 0.0 0.00 0.00 0.00 53 1017.4
20260506170059 6 0.0 0.0 0.00 0.00 0.00 55 1017.5
20260506164555 5 0.0 0.0 0.00 0.00 0.00 56 1017.5
20260506163103 5 0.0 0.0 0.00 0.00 0.00 55 1017.5